St. Johns, AZ

3:35 AM MST on December 15, 2019 (GMT -0700)
Saint Johns Industrial

Weather History for KSJN - August, 2019

Change the Weather History Date:

Friday, August 23, 2019

  Actual Average (KLSB) Record (KLSB)
Temperature  
Mean Temperature 76 °F -  
Max Temperature 88 °F 92 °F 91 °F (2015)
Min Temperature 64 °F 62 °F 59 °F (2016)
Cooling Degree Days 11    
Growing Degree Days 26 (Base 50)    
Moisture  
Dew Point 36 °F    
Average Humidity 25    
Maximum Humidity 45    
Minimum Humidity 9    
Precipitation  
Precipitation 0.00 in - - ()
Sea Level Pressure  
Sea Level Pressure 29.81 in    
Wind  
Wind Speed 4 mph (West)    
Max Wind Speed 15 mph    
Max Gust Speed 22 mph    
Visibility 10 miles    
Events      
Averages and records for this station are not official NWS values.
T = Trace of Precipitation, MM = Missing Value Source: NWS Daily Summary

Daily Weather History Graph

Daily Weather History Graph

Search for Another Location

Airport or City:

Astronomy

Aug. 23, 2019 Rise Set
Actual Time 5:44 AM MST 6:55 PM MST
Civil Twilight 5:17 AM MST 7:21 PM MST
Nautical Twilight 4:46 AM MST 7:52 PM MST
Astronomical Twilight 4:14 AM MST 8:25 PM MST
Moon 11:45 PM MST (8/23) 1:05 PM MST (8/23)
Length of Visible Light 14h 03m
Length of Day
13h 11m
Waning Gibbous, 48% of the Moon is Illuminated
Aug 23
Waning Gibbous
Aug 30
New
Sep 5
First Quarter
Sep 13
Full
Sep 21
Last Quarter

Hourly Weather History & Observations

Time (MST) Temp. Dew Point Humidity Pressure Visibility Wind Dir Wind Speed Gust Speed Precip Events Conditions
12:54 AM 69.1 °F 36.0 °F 30% 29.75 in 10.0 mi Calm Calm - N/A   Clear
1:54 AM 66.9 °F 37.0 °F 33% 29.75 in 10.0 mi Calm Calm - N/A   Clear
2:54 AM 64.9 °F 37.0 °F 36% 29.78 in 10.0 mi Calm Calm - N/A   Clear
3:54 AM 64.9 °F 39.0 °F 39% 29.80 in 10.0 mi West 3.5 mph - N/A   Clear
4:54 AM 66.0 °F 39.9 °F 38% 29.82 in 10.0 mi Calm Calm - N/A   Scattered Clouds
5:54 AM 64.0 °F 42.1 °F 45% 29.85 in 10.0 mi WNW 3.5 mph - N/A   Clear
6:54 AM 64.9 °F 43.0 °F 45% 29.88 in 10.0 mi East 5.8 mph - N/A   Clear
7:54 AM 71.1 °F 39.9 °F 32% 29.88 in 10.0 mi ENE 3.5 mph - N/A   Mostly Cloudy
8:54 AM 75.0 °F 46.0 °F 36% 29.89 in 10.0 mi Calm Calm - N/A   Mostly Cloudy
9:54 AM 80.1 °F 46.0 °F 30% 29.88 in 10.0 mi Variable 3.5 mph - N/A   Scattered Clouds
10:54 AM 82.9 °F 33.1 °F 17% 29.87 in 10.0 mi West 6.9 mph 16.1 mph N/A   Clear
11:54 AM 86.0 °F 30.0 °F 13% 29.83 in 10.0 mi North - - N/A   Partly Cloudy
12:54 PM 88.0 °F 25.0 °F 10% 29.82 in 10.0 mi West 8.1 mph - N/A   Mostly Cloudy
1:54 PM 90.0 °F 25.0 °F 10% 29.80 in 10.0 mi West 15.0 mph 21.9 mph N/A   Partly Cloudy
2:54 PM 91.0 °F 25.0 °F 9% 29.78 in 10.0 mi West 6.9 mph 19.6 mph N/A   Clear
3:54 PM 91.0 °F 30.0 °F 11% 29.75 in 10.0 mi WSW 12.7 mph - N/A   Clear
4:54 PM 90.0 °F 26.1 °F 10% 29.73 in 10.0 mi NW 6.9 mph - N/A   Clear
5:54 PM 88.0 °F 30.0 °F 12% 29.74 in 10.0 mi NW 6.9 mph - N/A   Clear
6:54 PM 82.0 °F 34.0 °F 18% 29.77 in 10.0 mi West 4.6 mph - N/A   Partly Cloudy
7:54 PM 78.1 °F 35.1 °F 21% 29.79 in 10.0 mi WSW 4.6 mph - N/A   Mostly Cloudy
8:54 PM 80.1 °F 39.0 °F 23% 29.80 in 10.0 mi SW 9.2 mph - N/A   Overcast
9:54 PM 77.0 °F 41.0 °F 28% 29.80 in 10.0 mi SW 11.5 mph - N/A   Partly Cloudy
10:54 PM 75.0 °F 44.1 °F 33% 29.81 in 10.0 mi WSW 13.8 mph - N/A   Clear
11:54 PM 73.0 °F 44.1 °F 35% 29.81 in 10.0 mi WSW 11.5 mph - N/A   Clear